Showing default

ANSER-LS, 62644

Orbit data source: Space-Track

ANSER-LS, 62644 is a payload satellite owned by INTA (ES) in SSO that was launched on Tue, 14 Jan 2025 UTC via an FALCON 9 launch vehicle from the Air Force Western Test Range (AFWTR). Payload-class satellites include a variety of spacecraft equipped with specific instruments for various scientific and technological missions. These include communications satellites like Starlink; space stations such as the ISS; scientific satellites like the Hubble; Earth observation satellites from companies like Planet Labs, Umbra, and HawkEye 360; GPS; miniature CubeSats for education and research; and military/defense satellites.

Loading next visibility...
Identifier
62644, 2025-009AM
Orbit
SSO
Country
Flag of ESES / SPN
Related business
Manufacturer
INTA
Mission
Operational Civil Imaging
Bus & Motor
CUBESAT 3U, Unknown motor
Mass
4 kg wet, 4 kg dry
Launch date (UTC)
2025-01-14 (1 year ago)
Launch vehicle
FALCON 9
Launch site
Air Force Western Test Range (AFWTR)
Object type
Payload
Rocket body
Debris
Shape & HBR
Box + 2 Pan, 0.2 m
Radar Cross Section
0.035 m², Small (<0.1 m²)

Expand to show TLE details & history
Last TLE update: 13 hours ago

TLE from 13 hours ago
0 ANSER-LS
1 62644U 25009AM  26062.15419536  .00056803  00000-0  15463-2 0  9991
2 62644  97.4080 147.1977 0001455 339.3303  20.7882 15.37314024 62866
Epoch: 2026-03-03T03:42Z
TLE epoch observation values (Epoch: 2026-03-03T03:42:02.479Z)
Latitude
-0.00004°
Longitude
-69.24995°
Altitude
456.24 km
Speed
7.639 km/s
True Right ascension
09h 48m 47s
True Declination
0° 00' 00"
Sunlit
Object was in full shadow at epoch
Visualization orbit readout
Latitude
Unknown
Longitude
Unknown
Altitude
Unknown
Speed
Unknown
Apparent Right ascension
Unknown
Apparent Declination
Unknown
Sunlit
N/A
Visualization observer readout
Local Sidereal Time
20:21:52
Azimuth
Unknown
Elevation
Unknown
Doppler factor
Unknown
Orbital elements
Apogee altitude
451.992 km
Perigee altitude
450.005 km
Semi-major axis
6,829.136 km
Eccentricity
0.00015
Inclination
97.408°
RAAN
147.1977°
Arg. of periapsis
339.3303°
True anomaly
20.79412°
Mean anomaly
20.7882°
Eccentric anomaly
20.79116°
Mean motion
3.84587 °/min
Orbital period
93.61 mins
BSTAR
0.0015463
Loading maneuver chart data...
Computing Atmospheric mass density...
Loading historical data...
Loading historical data...
Loading historical data...
Loading historical data...
Loading historical data...
Loading historical data...
Loading historical data...

Documentation

Showing up to 5 results
|